Location: Unspecified
(0.0000°N, 0.0000°E)
Time: 16:21:12
(UTC+00:00)

Vanguard 1 - All Passes

Search period start: 21 January 2018 00:00
Search period end: 31 January 2018 00:00
Orbit: 649 x 3834 km, 34.2° (Epoch: 21 January)

Date Brightness Start Highest point End Pass type
(mag) Time Alt. Az. Time Alt. Az. Time Alt. Az.
21 Jan - 03:23:47 10° NNW 03:34:46 22° NNE 03:49:22 10° ENE visible
21 Jan - 05:43:29 10° NW 06:02:29 58° NE 06:25:15 10° ESE visible
21 Jan - 08:07:32 10° WNW 08:30:16 68° SW 08:50:42 10° SE daylight
21 Jan - 10:40:33 10° W 10:58:06 27° SSW 11:11:18 10° SSE daylight
21 Jan - 18:13:14 10° SSW 18:17:51 29° SSE 18:21:43 10° E daylight
21 Jan - 20:34:28 10° W 20:38:01 23° NNW 20:42:00 10° NNE visible
22 Jan - 03:44:08 10° NNW 03:56:58 28° NE 04:14:31 10° E visible
22 Jan - 06:04:25 10° NW 06:24:11 71° NE 06:47:25 10° ESE daylight
22 Jan - 08:29:44 10° WNW 08:52:03 55° SW 09:11:39 10° SE daylight
22 Jan - 11:05:50 10° WSW 11:20:31 21° SSW 11:31:45 10° SSE daylight
22 Jan - 18:33:50 10° SW 18:38:58 54° SE 18:43:15 10° ENE visible
22 Jan - 20:57:13 10° NW 20:59:18 13° NNW 21:01:33 10° N visible
23 Jan - 04:04:33 10° NNW 04:18:52 36° NE 04:38:47 10° E visible
23 Jan - 06:25:32 10° NW 06:45:52 85° NE 07:09:11 10° SE daylight
23 Jan - 08:52:28 10° WNW 09:13:58 45° SW 09:32:29 10° SSE daylight
23 Jan - 11:31:55 10° WSW 11:43:14 17° SSW 11:52:13 10° S daylight
23 Jan - 16:35:01 10° S 16:38:42 14° SSE 16:41:42 10° SE daylight
23 Jan - 18:54:52 10° WSW 18:59:56 76° NW 19:04:20 10° NE visible
24 Jan - 02:08:07 10° N 02:14:00 14° NNE 02:21:15 10° NE visible
24 Jan - 04:25:06 10° NNW 04:40:33 46° NE 05:02:16 10° ESE visible
24 Jan - 06:46:54 10° WNW 07:07:35 80° SW 07:30:39 10° SE daylight
24 Jan - 09:15:50 10° W 09:36:07 36° SSW 09:53:14 10° SSE daylight
24 Jan - 11:58:31 10° SW 12:06:17 13° SSW 12:12:43 10° S daylight
24 Jan - 16:54:56 10° SSW 17:00:19 23° SSE 17:04:17 10° ESE daylight
24 Jan - 19:16:20 10° WSW 19:20:50 37° NW 19:24:58 10° NNE visible
25 Jan - 02:27:35 10° N 02:36:11 19° NE 02:47:51 10° ENE visible
25 Jan - 04:45:45 10° NW 05:02:06 58° NE 05:25:05 10° ESE visible
25 Jan - 07:08:34 10° WNW 07:29:23 67° SW 07:51:53 10° SE daylight
25 Jan - 09:39:57 10° W 09:58:33 29° SSW 10:14:00 10° SSE daylight
25 Jan - 12:24:57 10° SSW 12:29:29 11° SSW 12:33:29 10° S daylight
25 Jan - 14:55:55 10° S 14:58:08 11° S 15:00:06 10° SSE daylight
25 Jan - 17:15:26 10° SW 17:21:43 37° SSE 17:26:06 10° E daylight
25 Jan - 19:38:27 10° W 19:41:49 19° NW 19:45:04 10° NNE visible
26 Jan - 02:47:33 10° NNW 02:58:03 26° NE 03:13:15 10° E visible
26 Jan - 05:06:34 10° NW 05:23:37 72° NE 05:47:23 10° ESE visible
26 Jan - 07:30:38 10° WNW 07:51:20 55° SW 08:12:59 10° SE daylight
26 Jan - 10:04:52 10° WSW 10:21:19 23° SSW 10:34:50 10° SSE daylight
26 Jan - 12:49:52 10° SSW 12:52:42 11° S 12:55:18 10° S daylight
26 Jan - 15:15:09 10° SSW 15:20:18 15° SSE 15:24:16 10° SE daylight
26 Jan - 17:36:19 10° SW 17:42:53 67° SE 17:47:25 10° ENE daylight
27 Jan - 03:07:44 10° NNW 03:19:37 34° NE 03:37:40 10° E visible
27 Jan - 05:27:36 10° NW 05:45:10 87° NE 06:09:17 10° SE visible
27 Jan - 07:53:11 10° W 08:13:29 45° SSW 08:33:58 10° SE daylight
27 Jan - 10:30:28 10° WSW 10:44:26 19° SSW 10:55:49 10° SSE daylight
27 Jan - 13:12:00 10° SSW 13:15:49 11° S 13:19:07 10° SSE daylight
27 Jan - 15:35:21 10° SSW 15:42:15 21° SSE 15:47:01 10° ESE daylight
27 Jan - 17:57:35 10° WSW 18:03:51 67° NW 18:08:19 10° NE daylight
28 Jan - 01:15:19 10° NNE 01:16:16 10° NNE 01:17:14 10° NE visible
28 Jan - 03:28:07 10° NNW 03:41:01 45° NE 04:01:16 10° ESE visible
28 Jan - 05:48:51 10° WNW 06:06:50 79° SW 06:30:52 10° SE visible
28 Jan - 08:16:20 10° W 08:35:54 36° SSW 08:54:56 10° SSE daylight
28 Jan - 10:56:21 10° SW 11:07:50 16° SSW 11:17:12 10° SSE daylight
28 Jan - 13:32:55 10° SSW 13:38:39 13° S 13:43:14 10° SSE daylight
28 Jan - 15:55:55 10° SSW 16:03:57 31° SSE 16:09:03 10° E daylight
28 Jan - 18:19:18 10° WSW 18:24:42 35° NW 18:28:49 10° NNE daylight
29 Jan - 01:32:00 10° N 01:38:09 15° NE 01:46:14 10° ENE visible
29 Jan - 03:48:39 10° NW 04:02:19 57° NE 04:24:12 10° ESE visible
29 Jan - 06:10:25 10° WNW 06:28:41 65° SW 06:52:14 10° SE daylight
29 Jan - 08:40:09 10° W 08:58:38 29° SSW 09:15:58 10° SSE daylight
29 Jan - 11:21:44 10° SW 11:31:21 15° S 11:39:12 10° SSE daylight
29 Jan - 13:53:36 10° SSW 14:01:13 17° SSE 14:06:46 10° SE daylight
29 Jan - 16:16:46 10° SW 16:25:25 48° SSE 16:30:36 10° ENE daylight
29 Jan - 18:41:42 10° W 18:45:32 19° NW 18:48:46 10° N visible
30 Jan - 01:51:27 10° N 01:59:43 22° NE 02:11:51 10° E visible
30 Jan - 04:09:23 10° NW 04:23:38 72° NE 04:46:37 10° ESE visible
30 Jan - 06:32:21 10° WNW 06:50:44 53° SSW 07:13:27 10° SE daylight
30 Jan - 09:04:41 10° WSW 09:21:44 24° SSW 09:37:09 10° SSE daylight
30 Jan - 11:45:55 10° SSW 11:54:51 14° S 12:02:01 10° SSE daylight
30 Jan - 14:14:19 10° SSW 14:23:30 22° SSE 14:29:37 10° ESE daylight
30 Jan - 16:37:56 10° SW 16:46:37 78° SE 16:51:45 10° ENE daylight
